Hourly Data Report for August 02, 2002

SHERBROOKE A
QUEBEC

45°26'00.000" N
71°41'00.000" W
241.40 m
7028124
71610
YSC

Download Data

Hourly Data (August 2002)
Hourly Data Report for August 2, 2002
TIME
LST
Temp Definition
°C
Dew Point Definition
°C
Rel Hum Definition
%
Precip. Amount Definition
mm

Wind Dir Definition
10's deg

Wind Spd Definition
km/h
Visibility Definition
km
Stn Press Definition
kPa
Hmdx Definition


Wind Chill Definition


Weather Definition


00:00 17.8 16.9 94     0 15.0 98.48      
01:00 16.1 15.3 95   36 4 1.8 98.55      
02:00 17.4 16.7 96   11 9 15.0 98.45      
03:00 15.7 15.2 97     0 1.8 98.51      
04:00 15.7 15.2 97   9 4 11.3 98.57      
05:00 18.1 17.4 96   11 7 12.9 98.57      
06:00 18.1 17.5 96     0 3.2 98.67     Moderate Rain
07:00 19.8 19.0 95   15 7 24.1 98.53     Mostly Cloudy
08:00 19.6 18.9 96   24 13 4.8 98.70     Thunderstorms,Rain Showers
09:00 19.4 18.8 96   32 4 4.8 98.65     Rain Showers
10:00 20.2 19.5 96   7 7 4.0 98.59 27   Rain Showers
11:00 20.8 19.9 95   11 11 12.9 98.51 28   Rain Showers
12:00 22.2 20.5 90   14 4 24.1 98.51 30   Mostly Cloudy
13:00 25.4 21.4 79   20 13 24.1 98.48 34   Mostly Cloudy
14:00 27.1 22.3 75   21 9 24.1 98.39 37   Mostly Cloudy
15:00 26.0 21.6 77   23 6 24.1 98.38 35   Mostly Cloudy
16:00 26.3 22.0 77   23 4 24.1 98.40 36   Mostly Cloudy
17:00 27.2 22.0 73   23 9 15.0 98.41 37    
18:00 25.8 22.0 80   22 7 15.0 98.43 35    
19:00 24.4 21.4 83   24 7 15.0 98.44 33    
20:00 22.8 20.6 87   25 7 11.3 98.53 31    
21:00 22.2 20.0 87   23 7 9.7 98.60 30    
22:00 20.7 19.2 91   22 6 9.7 98.64 28    
23:00 20.6 19.1 91   23 7 9.7 98.64 27    

Notes on Data Quality.

Legend

  • E = Estimated
  • M = Missing
  • NA = Not Available*
  • [empty] = Indicates an unobserved value
Date modified: